C/2016 X1 ( Lemmon )

Japanese version
Home page
Updated on January 8, 2018

---------------------------------------------------------------------

* Profile

Discovery Date December 8, 2016
Magnitude 20.1 mag
Discoverer G. J. Leonard (Mount Lemmon)

* Pictures

* Orbital Elements

Epoch 2019 Apr. 27.0 TT = JDT 2458600.5
T 2019 Apr. 29.98322 TT                                 MPCW
q   7.5627418            (2000.0)            P               Q
z  +0.0005329      Peri.  224.58260     -0.44371978     -0.78457907
 +/-0.0000166      Node   256.42663     +0.89492436     -0.36250661
e   0.9959697      Incl.   26.45608     +0.04715015     -0.50301554
From 46 observations 2016 Nov. 26-2017 Oct. 16, mean residual 0".4.

* Magnitudes Graph

        m1 = 6.0 + 5 log d + 10.0 log r

---------------------------------------------------------------------

The orbital elements are published on M.P.E.C. 2017-V13.
The magnitudes graphs are made with Comet for Windows.

---------------------------------------------------------------------

Copyright(C) Seiichi Yoshida (comet@aerith.net). All rights reserved.